Soldotna, AK

2:18 AM AKST on February 23, 2017 (GMT -0900)
Soldotna

Weather History for PASX - November, 2013

Change the Weather History Date:

Saturday, November 16, 2013

  Actual Average Record
Temperature  
Mean Temperature 18 °F -  
Max Temperature 26 °F 28 °F 45 °F (1967)
Min Temperature 10 °F 13 °F -20 °F (1956)
Degree Days  
Heating Degree Days 47    
Moisture  
Dew Point 11 °F    
Average Humidity 74    
Maximum Humidity 100    
Minimum Humidity 46    
Precipitation  
Precipitation 0.00 in - - ()
Sea Level Pressure  
Sea Level Pressure 30.15 in    
Wind  
Wind Speed 2 mph (East)    
Max Wind Speed 8 mph    
Max Gust Speed -    
Visibility 10 miles    
Events      
Averages and records for this station are not official NWS values.
T = Trace of Precipitation, MM = Missing Value Source: NWS Daily Summary

Daily Weather History Graph

Daily Weather History Graph

Search for Another Location

Airport or City:

Trip Planner

Search our weather history database for the weather conditions in past years. The results will help you decide how hot, cold, wet, or windy it might be!

Date:

Astronomy

Nov. 16, 2013 Rise Set
Actual Time 9:08 AM AKST 4:28 PM AKST
Civil Twilight 8:18 AM AKST 5:18 PM AKST
Nautical Twilight 7:25 AM AKST 6:11 PM AKST
Astronomical Twilight 6:35 AM AKST 7:01 PM AKST
Moon 4:19 PM AKST (11/16) 8:02 AM AKST (11/16)
Length of Visible Light 9h 00m
Length of Day
7h 19m
Waxing Gibbous, 99% of the Moon is Illuminated
Nov 16
Waxing Gibbous
Nov 17
Full
Nov 25
Last Quarter
Dec 2
New
Dec 9
First Quarter

Hourly Weather History & Observations

Time (AKST) Temp. Windchill Dew Point Humidity Pressure Visibility Wind Dir Wind Speed Gust Speed Precip Events Conditions
12:16 AM 17.6 °F - 15.8 °F 93% 30.01 in 10.0 mi Calm Calm - N/A   Overcast
12:36 AM 19.4 °F - 15.8 °F 86% 30.01 in 10.0 mi Calm Calm - N/A   Overcast
12:56 AM 19.4 °F - 15.8 °F 86% 30.01 in 10.0 mi Calm Calm - N/A   Overcast
1:16 AM 17.6 °F - 14.0 °F 86% 30.02 in 10.0 mi Calm Calm - N/A   Overcast
1:36 AM 17.6 °F - 14.0 °F 86% 30.02 in 10.0 mi Calm Calm - N/A   Scattered Clouds
1:56 AM 15.8 °F - 10.4 °F 79% 30.03 in 10.0 mi Calm Calm - N/A   Partly Cloudy
2:16 AM 15.8 °F 10.2 °F 12.2 °F 86% 30.03 in 10.0 mi ENE 3.5 mph - N/A   Clear
2:36 AM 15.8 °F - 15.8 °F 100% 30.04 in 10.0 mi Calm Calm - N/A   Clear
2:56 AM 14.0 °F 6.5 °F 12.2 °F 93% 30.04 in 10.0 mi East 4.6 mph - N/A   Clear
3:16 AM 17.6 °F 10.7 °F 12.2 °F 79% 30.05 in 10.0 mi East 4.6 mph - N/A   Clear
3:36 AM 17.6 °F 10.7 °F 12.2 °F 79% 30.05 in 10.0 mi East 4.6 mph - N/A   Clear
3:56 AM 15.8 °F - 12.2 °F 86% 30.06 in 10.0 mi Calm Calm - N/A   Clear
4:16 AM 14.0 °F - 8.6 °F 79% 30.06 in 10.0 mi Calm Calm - N/A   Clear
4:36 AM 12.2 °F - 8.6 °F 85% 30.07 in 10.0 mi Calm Calm - N/A   Clear
4:56 AM 12.2 °F - 6.8 °F 79% 30.07 in 10.0 mi Calm Calm - N/A   Clear
5:16 AM 14.0 °F - 10.4 °F 86% 30.08 in 10.0 mi Calm Calm - N/A   Clear
5:36 AM 10.4 °F 4.0 °F 3.2 °F 73% 30.09 in 10.0 mi East 3.5 mph - N/A   Clear
5:56 AM 10.4 °F - 5.0 °F 79% 30.09 in 10.0 mi Calm Calm - N/A   Clear
6:16 AM 10.4 °F - 8.6 °F 92% 30.10 in 10.0 mi Calm Calm - N/A   Clear
6:36 AM 14.0 °F 5.1 °F 10.4 °F 86% 30.11 in 10.0 mi East 5.8 mph - N/A   Scattered Clouds
6:56 AM 12.2 °F 2.9 °F 8.6 °F 85% 30.11 in 10.0 mi East 5.8 mph - N/A   Mostly Cloudy
7:16 AM 15.8 °F 5.1 °F 8.6 °F 73% 30.11 in 10.0 mi East 8.1 mph - N/A   Mostly Cloudy
7:36 AM 15.8 °F 7.2 °F 10.4 °F 79% 30.12 in 10.0 mi East 5.8 mph - N/A   Mostly Cloudy
7:56 AM 15.8 °F 5.1 °F 10.4 °F 79% 30.13 in 10.0 mi East 8.1 mph - N/A   Mostly Cloudy
8:16 AM 14.0 °F 5.1 °F 10.4 °F 86% 30.13 in 10.0 mi ENE 5.8 mph - N/A   Clear
8:36 AM 14.0 °F 5.1 °F 10.4 °F 86% 30.14 in 10.0 mi East 5.8 mph - N/A   Clear
8:56 AM 12.2 °F 4.3 °F 8.6 °F 85% 30.15 in 10.0 mi ESE 4.6 mph - N/A   Clear
9:16 AM 12.2 °F - 8.6 °F 85% 30.15 in 10.0 mi Calm Calm - N/A   Clear
9:36 AM 10.4 °F - 6.8 °F 85% 30.16 in 10.0 mi Calm Calm - N/A   Clear
9:56 AM 12.2 °F 2.9 °F 8.6 °F 85% 30.17 in 10.0 mi ESE 5.8 mph - N/A   Clear
10:16 AM 12.2 °F - 8.6 °F 85% 30.16 in 10.0 mi Calm Calm - N/A   Clear
10:36 AM 12.2 °F - 8.6 °F 85% 30.17 in 10.0 mi Calm Calm - N/A   Clear
10:56 AM 15.8 °F 5.1 °F 10.4 °F 79% 30.18 in 10.0 mi East 8.1 mph - N/A   Clear
11:16 AM 17.6 °F 12.3 °F 12.2 °F 79% 30.18 in 10.0 mi East 3.5 mph - N/A   Clear
11:36 AM 19.4 °F - 12.2 °F 74% 30.18 in 10.0 mi Calm Calm - N/A   Clear
11:56 AM 21.2 °F 13.6 °F 15.8 °F 80% 30.19 in 10.0 mi ESE 5.8 mph - N/A   Clear
12:16 PM 21.2 °F 13.6 °F 15.8 °F 80% 30.18 in 10.0 mi East 5.8 mph - N/A   Clear
12:36 PM 23.0 °F 15.8 °F 15.8 °F 74% 30.18 in 10.0 mi East 5.8 mph - N/A   Clear
12:56 PM 23.0 °F 18.4 °F 15.8 °F 74% 30.18 in 10.0 mi East 3.5 mph - N/A   Clear
1:16 PM 24.8 °F 20.5 °F 15.8 °F 69% 30.18 in 10.0 mi East 3.5 mph - N/A   Clear
1:36 PM 24.8 °F 17.9 °F 15.8 °F 69% 30.18 in 10.0 mi East 5.8 mph - N/A   Clear
1:56 PM 24.8 °F 20.5 °F 15.8 °F 69% 30.18 in 10.0 mi East 3.5 mph - N/A   Clear
2:16 PM 24.8 °F - 15.8 °F 69% 30.19 in 10.0 mi Calm Calm - N/A   Clear
2:36 PM 26.6 °F 21.2 °F 14.0 °F 59% 30.19 in 10.0 mi East 4.6 mph - N/A   Clear
2:56 PM 24.8 °F 17.9 °F 14.0 °F 64% 30.18 in 10.0 mi East 5.8 mph - N/A   Partly Cloudy
3:16 PM 24.8 °F 16.9 °F 14.0 °F 64% 30.18 in 10.0 mi ESE 6.9 mph - N/A   Clear
3:36 PM 24.8 °F 19.1 °F 12.2 °F 59% 30.18 in 10.0 mi ESE 4.6 mph - N/A   Clear
3:56 PM 23.0 °F 18.4 °F 10.4 °F 59% 30.18 in 10.0 mi ESE 3.5 mph - N/A   Scattered Clouds
4:16 PM 23.0 °F - 12.2 °F 63% 30.18 in 10.0 mi Calm Calm - N/A   Overcast
4:36 PM 24.8 °F 16.9 °F 12.2 °F 59% 30.19 in 10.0 mi East 6.9 mph - N/A   Overcast
4:56 PM 24.8 °F 17.9 °F 15.8 °F 69% 30.19 in 3.0 mi East 5.8 mph - N/A   Mostly Cloudy
5:16 PM 24.8 °F 19.1 °F 14.0 °F 64% 30.19 in 10.0 mi East 4.6 mph - N/A   Mostly Cloudy
5:36 PM 23.0 °F - 14.0 °F 68% 30.19 in 10.0 mi Calm Calm - N/A   Overcast
5:56 PM 23.0 °F 17.0 °F 12.2 °F 63% 30.19 in 10.0 mi ESE 4.6 mph - N/A   Mostly Cloudy
6:16 PM 23.0 °F 18.4 °F 15.8 °F 74% 30.20 in 10.0 mi ENE 3.5 mph - N/A   Overcast
6:36 PM 21.2 °F 16.4 °F 12.2 °F 68% 30.20 in 10.0 mi ESE 3.5 mph - N/A   Mostly Cloudy
6:56 PM 19.4 °F 10.4 °F 12.2 °F 74% 30.20 in 10.0 mi East 6.9 mph - N/A   Partly Cloudy
7:16 PM 19.4 °F - 8.6 °F 63% 30.20 in 10.0 mi Calm Calm - N/A   Clear
7:36 PM 19.4 °F - 10.4 °F 68% 30.21 in 10.0 mi Calm Calm - N/A   Clear
7:56 PM 17.6 °F 8.2 °F 10.4 °F 73% 30.21 in 10.0 mi ESE 6.9 mph - N/A   Mostly Cloudy
8:16 PM 19.4 °F - 8.6 °F 63% 30.22 in 10.0 mi Calm Calm - N/A   Mostly Cloudy
8:36 PM 17.6 °F 10.7 °F 8.6 °F 68% 30.22 in 10.0 mi ESE 4.6 mph - N/A   Overcast
8:56 PM 17.6 °F 12.3 °F 8.6 °F 68% 30.22 in 10.0 mi ENE 3.5 mph - N/A   Overcast
9:16 PM 17.6 °F - 10.4 °F 73% 30.22 in 10.0 mi Calm Calm - N/A   Overcast
9:36 PM 15.8 °F - 8.6 °F 73% 30.21 in 10.0 mi Calm Calm - N/A   Overcast
9:56 PM 17.6 °F 10.7 °F 8.6 °F 68% 30.21 in 10.0 mi ESE 4.6 mph - N/A   Overcast
10:16 PM 19.4 °F 10.4 °F 8.6 °F 63% 30.22 in 10.0 mi NNE 6.9 mph - N/A   Partly Cloudy
10:36 PM 21.2 °F 13.6 °F 6.8 °F 54% 30.23 in 10.0 mi NE 5.8 mph - N/A   Clear
10:56 PM 21.2 °F 14.9 °F 6.8 °F 54% 30.23 in 10.0 mi NE 4.6 mph - N/A   Clear
11:16 PM 23.0 °F 15.8 °F 6.8 °F 50% 30.23 in 10.0 mi NNE 5.8 mph - N/A   Clear
11:36 PM 23.0 °F 14.7 °F 5.0 °F 46% 30.23 in 10.0 mi North 6.9 mph - N/A   Clear
11:56 PM 21.2 °F 14.9 °F 5.0 °F 50% 30.24 in 10.0 mi NNW 4.6 mph - N/A   Clear